Tracking 31080 objects as of 20-Jul-2025
HD Live streaming from Space Station
objects crossing your sky now

COSMOS 1176 FUEL CORE

Track COSMOS 1176 FUEL CORE now!
10-day predictions


NORAD ID: 11971
Int'l Code: 1980-034D
Perigee: 875.1 km
Apogee: 948.2 km
Inclination: 64.8 °
Period: 103.1 minutes
Semi major axis: 7282 km
RCS: 0.1595 m2 (medium)
Launch date: April 29, 1980
Source: Commonwealth of Independent States (former USSR) (CIS)
Launch site: TYURATAM MISSILE AND SPACE COMPLEX (TTMTR)

Note: This is SATELLITE DEBRIS
Your satellite tracking list
Your tracking list is empty




NASA's NSSDC Master Catalog

Two Line Element Set (TLE):
1 11971U 80034D   25200.89420150 -.00000082  00000-0  76500-5 0  9996
2 11971  64.8316 246.3261 0050190 293.9616 239.5382 13.96921411299193
Source of the keplerian elements: AFSPC